Ten-Koh
1 43677U 18084G 22314.61863002 .00002045 00000-0 20941-3 0 9996
2 43677 97.9851 86.2121 0016294 146.2157 214.0103 14.91554899219464
PO-101
1 43678U 18084H 22314.82473221 .00001199 00000-0 12259-3 0 9992
2 43678 97.9928 90.0173 0010286 155.5824 204.5872 14.92472885219685
IRVINE 01
1 43693U 18088D 22313.88327529 .00131778 00000-0 19764-2 0 9991
2 43693 85.0261 211.3613 0001920 333.3972 26.7189 15.54463351222655
QO-100
1 43700U 18090A 22314.72821465 .00000153 00000-0 00000 0 0 9997
2 43700 0.0086 298.2465 0001555 317.4734 82.1046 1.00273546 14746
Reaktor Hello World
1 43743U 18096AA 22314.74793844 .00020201 00000-0 53512-3 0 9997
2 43743 97.3430 34.2754 0012566 251.4543 108.5338 15.38306064220411
MinXSS-2
1 43758U 18099A 22314.75927419 .00003729 00000-0 31731-3 0 9999
2 43758 97.6091 19.1024 0015455 129.9347 230.3237 14.98324515215003
AO-95
1 43770U 18099N 22314.46265736 .00004784 00000-0 41714-3 0 9992
2 43770 97.6047 16.9559 0015167 140.6036 219.6293 14.97238961214853
RANGE-B
1 43772U 18099Q 22314.11979042 .00005352 00000-0 45586-3 0 9991
2 43772 97.6158 18.6678 0014546 131.4029 228.8447 14.98103003214839
RANGE-A
1 43773U 18099R 22314.43283133 .00002770 00000-0 24767-3 0 9995
2 43773 97.5960 15.5578 0014008 130.7189 229.5252 14.96611880214823
MOVE-II
1 43780U 18099Y 22314.14244298 .00008506 00000-0 70323-3 0 9992
2 43780 97.6116 18.1729 0013963 133.2721 226.9670 14.99095136214874
SNUSat 2
1 43782U 18099AA 22314.76299143 .00003047 00000-0 26691-3 0 9995
2 43782 97.6046 17.7479 0012982 127.0193 233.2219 14.97346900214921
SnugLite
1 43784U 18099AC 22314.70998387 .00003997 00000-0 34578-3 0 9994
2 43784 97.5999 17.3200 0015383 135.6949 224.5508 14.97638086214944
ITASat 1
1 43786U 18099AE 22314.37916305 .00003599 00000-0 31473-3 0 9998
2 43786 97.6067 17.8663 0015575 136.2672 223.9787 14.97270858214888
EAGLET 1
1 43790U 18099AJ 22314.12880396 .00003967 00000-0 34616-3 0 9997
2 43790 97.6066 18.1662 0014296 138.0295 222.2026 14.97317300214584
ESEO
1 43792U 18099AL 22314.66223081 .00002528 00000-0 22684-3 0 9994
2 43792 97.6016 17.6702 0014405 134.3473 225.8932 14.96537848214696
CSIM
1 43793U 18099AM 22314.18403305 .00006400 00000-0 52201-3 0 9992
2 43793 97.6080 19.2673 0013952 135.4806 224.7542 14.99717301214716
Astrocast 0.1
1 43798U 18099AS 22314.47802942 .00005724 00000-0 47938-3 0 9998
2 43798 97.6105 19.2328 0013708 113.3455 246.9212 14.98739482214971
JO-97
1 43803U 18099AX 22314.40841316 .00004713 00000-0 40332-3 0 9994
2 43803 97.6050 17.7042 0015775 132.1050 228.1516 14.97963511214913
Suomi 100
1 43804U 18099AY 22314.70476900 .00003780 00000-0 32585-3 0 9995
2 43804 97.6022 17.8823 0015211 134.6238 225.6228 14.97805168214961
Al Farabi 2
1 43805U 18099AZ 22314.89401622 .00006375 00000-0 53445-3 0 9996
2 43805 97.6079 18.7423 0014921 130.9220 229.3293 14.98643465215029
CHOMPTT
1 43855U 18104G 22314.41897422 .00011950 00000-0 40550-3 0 9991
2 43855 85.0309 313.6690 0016854 62.5750 297.7208 15.30237704217028
ISAT
1 43879U 18111D 22314.71119797 .00004072 00000-0 34033-3 0 9996
2 43879 97.6539 217.6514 0011234 182.2223 177.8951 14.99014285209551
UWE-4
1 43880U 18111E 22314.70139556 .00004529 00000-0 37697-3 0 9998
2 43880 97.6596 218.4314 0010633 175.9156 184.2156 14.99122924209604
Sparrow
1 43881U 18111F 22314.70149740 .00005074 00000-0 41927-3 0 9992
2 43881 97.6615 218.7209 0010671 172.1969 187.9422 14.99348542209619
Lume 1
1 43908U 18111AJ 22314.65104036 .00015807 00000-0 48509-3 0 9993
2 43908 97.1681 197.9432 0014682 272.5536 87.4027 15.33718062215770
FO-99
1 43937U 19003F 22314.76851804 .00019016 00000-0 56124-3 0 9998
2 43937 97.1159 342.6616 0018161 356.4219 3.6892 15.34854395212386
MYSat 1
1 44045U 18092F 22312.72189456 .00296325 00000-0 15388-2 0 9993
2 44045 51.6229 63.8893 0011172 310.9304 49.0729 15.79518389210430
AstroCast 0.2
1 44083U 19018F 22314.69307421 .00014954 00000-0 50452-3 0 9994
2 44083 97.3035 10.9451 0007822 332.9381 27.1451 15.30768405200827
AISTechSat 3
1 44103U 19018AB 22314.71838123 .00012791 00000-0 43597-3 0 9997
2 44103 97.2899 11.1627 0010587 343.7568 16.3332 15.30450276200994
AISat 1
1 44104U 19018AC 22314.76752729 .00010409 00000-0 26969-3 0 9998
2 44104 97.3890 38.6201 0048296 329.9272 29.9201 15.38013774202066
Prox-1
1 44339U 19036A 22314.50506808 .00005413 00000-0 11563-2 0 9997
2 44339 24.0021 350.8655 0010808 22.4297 337.6666 14.56087743179749
Oculus-ASR
1 44348U 19036K 22314.17645169 .00101299 -39124-5 63307-3 0 9992
2 44348 28.4959 253.6959 0170971 169.1073 191.3298 15.57684829187108
NO-104
1 44354U 19036R 22314.11596470 .00130052 -22456-5 73208-3 0 9993
2 44354 28.5205 235.3065 0158026 195.0998 164.4851 15.62008844187284
Move-IIb
1 44398U 19038N 22314.54969077 .00028501 00000-0 12124-2 0 9996
2 44398 97.6453 285.7103 0019309 349.7303 10.3519 15.22804009185230
SONATE
1 44400U 19038Q 22314.59717641 .00010828 00000-0 55980-3 0 9994
2 44400 97.6558 284.0323 0022609 354.7234 5.3750 15.16225510185061
BeeSat 9
1 44412U 19038AC 22314.39909319 .00014192 00000-0 66562-3 0 9996
2 44412 97.6538 285.1210 0018956 357.4883 2.6253 15.19624478184830
JAISAT-1
1 44419U 19038F 22314.40540927 .00013503 00000-0 62552-3 0 9991
2 44419 97.6540 286.0765 0017814 354.8271 5.2777 15.20082146185203
LightSail-2
1 44420U 19036AC 22314.90024803 .01656426 00000-0 36473-1 0 9995
2 44420 23.9894 230.2723 0023354 238.4284 121.3584 15.39737959179119
Taurus 1
1 44530U 19059C 22314.84353362 .00003956 00000-0 10815-2 0 9996
2 44530 98.5518 54.8449 0012974 42.6698 317.5457 14.47759234167020
Duchifat 3
1 44854U 19089C 22314.43206972 .00008241 00000-0 61756-3 0 9990
2 44854 36.9651 314.3040 0008093 320.4534 192.7508 15.02262006159880
OPS-SAT
1 44878U 19092F 22314.48611715 .00013189 00000-0 56190-3 0 9993
2 44878 97.4778 137.4644 0011422 185.3197 174.7920 15.23030661160394
TO-108
1 44881U 19093C 22314.84073631 .00001160 00000-0 15286-3 0 9994
2 44881 97.8831 31.8828 0016247 73.0023 287.2946 14.81922685156453
FloripaSat 1
1 44885U 19093G 22314.85595262 .00003814 00000-0 46630-3 0 9993
2 44885 97.8884 33.6086 0015456 78.3283 281.9599 14.83760519156552
RS-44
1 44909U 19096E 22314.62597885 .00000004 00000-0 -24628-4 0 9994
2 44909 82.5177 133.1831 0217017 338.2228 20.9750 12.79716587134255
BY70-2
1 45857U 20042B 22314.86858766 .00012709 00000-0 16062-2 0 9999
2 45857 97.9455 30.4219 0009238 6.1283 353.9954 14.81972108127123
UPMSat 2
1 46276U 20061E 22314.71006086 .00005267 00000-0 25162-3 0 9993
2 46276 97.3768 22.1767 0002440 59.5946 300.5529 15.19444925121079
AmicalSat
1 46287U 20061R 22314.73685463 .00008021 00000-0 44070-3 0 9999
2 46287 97.4312 20.9945 0003645 118.9222 241.2376 15.14359881120594
SALSAT
1 46495U 20068K 22314.38602788 .00004316 00000-0 30546-3 0 9993
2 46495 97.7449 255.8814 0017262 138.5398 221.7141 15.05268616116138
BY70-3
1 46839U 20079N 22314.85996251 .00060075 00000-0 10456-2 0 9991
2 46839 97.1827 25.5895 0005657 153.3461 318.5927 15.50561076112854
CAPE 3
1 47309U 21002A 22314.78694313 .00014322 00000-0 51594-3 0 9990
2 47309 60.6802 173.0045 0040892 68.5261 292.0181 15.28072811100782
